Weather History for Tekamah, NE

Change the Weather History Date:

Wednesday, March 13, 2013

  Actual Average Record
Temperature  
Mean Temperature 24 °F -  
Max Temperature 33 °F 45 °F 82 °F (2012)
Min Temperature 14 °F 25 °F 1 °F (1975)
Degree Days  
Heating Degree Days 42    
Moisture  
Dew Point 17 °F    
Average Humidity 77    
Maximum Humidity 84    
Minimum Humidity 69    
Precipitation  
Precipitation 0.00 in - - ()
Sea Level Pressure  
Sea Level Pressure 30.39 in    
Wind  
Wind Speed 8 mph (South)    
Max Wind Speed 12 mph    
Max Gust Speed -    
Visibility 7 miles    
Events      
Averages and records for this station are not official NWS values.
T = Trace of Precipitation, MM = Missing Value Source: NWS Daily Summary

Daily Weather History Graph

Daily Weather History Graph

Search for Another Location

Airport:

Trip Planner

Search our weather history database for the weather conditions in past years. The results will help you decide how hot, cold, wet, or windy it might be!

Date:

Astronomy

Mar. 13, 2013 Rise Set
Actual Time 7:39 AM CDT 7:29 PM CDT
Civil Twilight 7:11 AM CDT 7:57 PM CDT
Nautical Twilight 6:39 AM CDT 8:29 PM CDT
Astronomical Twilight 6:06 AM CDT 9:02 PM CDT
Moon 8:17 AM CDT (3/13) 9:49 PM CDT (3/13)
Length of Visible Light 12h 45m
Length of Day
11h 49m
Waxing Crescent, 4% of the Moon is Illuminated
Mar 13
Waxing Crescent
Mar 19
First Quarter
Mar 27
Full
Apr 2
Last Quarter
Apr 10
New

Hourly Weather History & Observations

Time (CDT) Temp. Windchill Dew Point Humidity Pressure Visibility Wind Dir Wind Speed Gust Speed Precip Events Conditions
12:54 AM 21.9 °F 11.0 °F 15.1 °F 75% 30.37 in 9.0 mi WNW 10.4 mph - N/A   Clear
1:54 AM 19.9 °F 8.6 °F 14.0 °F 78% 30.38 in 8.0 mi NW 10.4 mph - N/A   Clear
2:54 AM 19.0 °F 6.8 °F 12.9 °F 77% 30.39 in 8.0 mi NW 11.5 mph - N/A   Clear
3:54 AM 17.1 °F 7.6 °F 10.9 °F 77% 30.40 in 8.0 mi WNW 6.9 mph - N/A   Clear
4:54 AM 15.1 °F 5.2 °F 10.0 °F 80% 30.41 in 7.0 mi WNW 6.9 mph - N/A   Clear
5:54 AM 17.1 °F 5.8 °F 12.0 °F 81% 30.43 in 8.0 mi WNW 9.2 mph - N/A   Clear
6:54 AM 14.0 °F 5.1 °F 10.0 °F 84% 30.43 in 7.0 mi West 5.8 mph - N/A   Clear
7:54 AM 16.0 °F 4.4 °F 12.0 °F 84% 30.44 in 6.0 mi WNW 9.2 mph - N/A   Clear
8:54 AM 18.0 °F 9.8 °F 12.0 °F 78% 30.45 in 7.0 mi NNW 5.8 mph - N/A   Clear
9:54 AM 19.0 °F 11.1 °F 12.9 °F 77% 30.47 in 6.0 mi NE 5.8 mph - N/A   Haze
10:54 AM 21.9 °F - 15.1 °F 75% 30.48 in 10.0 mi Calm Calm - N/A   Clear
11:54 AM 21.9 °F 17.2 °F 16.0 °F 78% 30.49 in 6.0 mi SSE 3.5 mph - N/A   Haze
12:54 PM 24.1 °F 18.2 °F 17.1 °F 75% 30.48 in 6.0 mi South 4.6 mph - N/A   Haze
1:54 PM 27.0 °F 20.5 °F 19.0 °F 72% 30.45 in 8.0 mi SE 5.8 mph - N/A   Partly Cloudy
2:54 PM 28.0 °F 22.8 °F 19.9 °F 72% 30.43 in 8.0 mi SSE 4.6 mph - N/A   Overcast
3:54 PM 30.0 °F 24.1 °F 21.9 °F 72% 30.40 in 7.0 mi SE 5.8 mph - N/A   Overcast
4:54 PM 32.0 °F 25.6 °F 23.0 °F 69% 30.38 in 6.0 mi SE 6.9 mph - N/A   Haze
5:54 PM 33.1 °F 26.1 °F 24.1 °F 70% 30.35 in 6.0 mi SSE 8.1 mph - N/A   Haze
6:54 PM 30.9 °F 24.3 °F 25.0 °F 79% 30.34 in 4.0 mi SSE 6.9 mph - N/A   Haze
7:54 PM 27.0 °F 20.5 °F 21.0 °F 78% 30.33 in 5.0 mi ESE 5.8 mph - N/A   Haze
8:54 PM 27.0 °F 17.3 °F 19.0 °F 72% 30.31 in 8.0 mi SE 10.4 mph - N/A   Clear
9:54 PM 25.0 °F 16.3 °F 19.9 °F 81% 30.30 in 6.0 mi SSE 8.1 mph - N/A   Haze
10:54 PM 25.0 °F 18.1 °F 19.9 °F 81% 30.28 in 6.0 mi SSE 5.8 mph - N/A   Haze
11:54 PM 25.0 °F 17.1 °F 19.9 °F 81% 30.27 in 7.0 mi SSE 6.9 mph - N/A   Clear